| time (UTC) | temp C | wind direction | speed KPH | gust KPH | rain 1hr cm | rain 24hr cm | rain mn cm | humidity % | barometer mb |
| 20260504035217 | 17 | 0 | 8.0 | 16.1 | 0.00 | 0.00 | 0.00 | 26 | 996.5 |
| 20260504034217 | 17 | 0 | 8.0 | 14.5 | 0.00 | 0.00 | 0.00 | 25 | 996.8 |
| 20260504033217 | 17 | 0 | 9.7 | 17.7 | 0.00 | 0.00 | 0.00 | 25 | 997.0 |
| 20260504032217 | 17 | 0 | 9.7 | 22.5 | 0.00 | 0.00 | 0.00 | 25 | 997.3 |
| 20260504031217 | 18 | 0 | 9.7 | 20.9 | 0.00 | 0.00 | 0.00 | 25 | 997.5 |
| 20260504030217 | 18 | 0 | 6.4 | 14.5 | 0.00 | 0.00 | 0.00 | 24 | 997.6 |
| 20260504025217 | 18 | 0 | 8.0 | 12.9 | 0.00 | 0.00 | 0.00 | 24 | 997.7 |
| 20260504024217 | 18 | 0 | 9.7 | 17.7 | 0.00 | 0.00 | 0.00 | 23 | 997.9 |
| 20260504023217 | 18 | 0 | 4.8 | 9.7 | 0.00 | 0.00 | 0.00 | 22 | 998.1 |
| 20260504022217 | 19 | 0 | 8.0 | 14.5 | 0.00 | 0.00 | 0.00 | 21 | 998.3 |
| 20260504021237 | 19 | 0 | 8.0 | 17.7 | 0.00 | 0.00 | 0.00 | 21 | 998.3 |
| 20260504020217 | 19 | 0 | 6.4 | 14.5 | 0.00 | 0.00 | 0.00 | 20 | 998.5 |
| 20260504015216 | 19 | 0 | 6.4 | 9.7 | 0.00 | 0.00 | 0.00 | 20 | 998.7 |
| 20260504014217 | 20 | 0 | 3.2 | 6.4 | 0.00 | 0.00 | 0.00 | 20 | 999.0 |
| 20260504013216 | 20 | 0 | 4.8 | 9.7 | 0.00 | 0.00 | 0.00 | 19 | 999.2 |
| 20260504012217 | 20 | 0 | 6.4 | 12.9 | 0.00 | 0.00 | 0.00 | 19 | 999.5 |
| 20260504011216 | 21 | 0 | 4.8 | 12.9 | 0.00 | 0.00 | 0.00 | 18 | 999.6 |
| 20260504010217 | 21 | 0 | 3.2 | 6.4 | 0.00 | 0.00 | 0.00 | 18 | 999.9 |
| 20260504005216 | 21 | 0 | 8.0 | 14.5 | 0.00 | 0.00 | 0.00 | 17 | 1000.3 |
| 20260504004216 | 21 | 0 | 6.4 | 9.7 | 0.00 | 0.00 | 0.00 | 16 | 1000.4 |
| 20260504003216 | 21 | 0 | 6.4 | 9.7 | 0.00 | 0.00 | 0.00 | 16 | 1000.7 |
| 20260504002236 | 21 | 0 | 8.0 | 17.7 | 0.00 | 0.00 | 0.00 | 15 | 1001.0 |
| 20260504001216 | 22 | 248 | 9.7 | 16.1 | 0.00 | 0.00 | 0.00 | 14 | 1001.2 |
| 20260504000219 | 22 | 225 | 9.7 | 20.9 | 0.00 | 0.00 | 0.00 | 14 | 1001.3 |
| 20260503235216 | 22 | 248 | 11.3 | 14.5 | 0.00 | 0.00 | 0.00 | 13 | 1001.3 |
| 20260503234237 | 22 | 225 | 11.3 | 16.1 | 0.00 | 0.00 | 0.00 | 13 | 1001.6 |
| 20260503233216 | 22 | 225 | 12.9 | 17.7 | 0.00 | 0.00 | 0.00 | 13 | 1002.0 |
| 20260503232216 | 22 | 248 | 14.5 | 22.5 | 0.00 | 0.00 | 0.00 | 14 | 1002.1 |
| 20260503231236 | 22 | 270 | 14.5 | 20.9 | 0.00 | 0.00 | 0.00 | 14 | 1002.4 |
| 20260503230216 | 22 | 270 | 19.3 | 29.0 | 0.00 | 0.00 | 0.00 | 13 | 1002.5 |
| 20260503225217 | 23 | 270 | 9.7 | 17.7 | 0.00 | 0.00 | 0.00 | 15 | 1002.8 |
| 20260503224236 | 23 | 248 | 12.9 | 19.3 | 0.00 | 0.00 | 0.00 | 13 | 1002.8 |
| 20260503223236 | 23 | 225 | 16.1 | 25.7 | 0.00 | 0.00 | 0.00 | 14 | 1003.0 |
| 20260503222216 | 23 | 248 | 19.3 | 29.0 | 0.00 | 0.00 | 0.00 | 13 | 1003.1 |
| 20260503221216 | 23 | 270 | 6.4 | 14.5 | 0.00 | 0.00 | 0.00 | 16 | 1003.4 |
| 20260503220216 | 22 | 248 | 14.5 | 20.9 | 0.00 | 0.00 | 0.00 | 14 | 1003.7 |
| 20260503215216 | 23 | 225 | 12.9 | 22.5 | 0.00 | 0.00 | 0.00 | 15 | 1003.9 |
| 20260503214236 | 23 | 0 | 19.3 | 30.6 | 0.00 | 0.00 | 0.00 | 16 | 1004.1 |
| 20260503213216 | 22 | 270 | 12.9 | 19.3 | 0.00 | 0.00 | 0.00 | 16 | 1004.3 |
| 20260503212216 | 22 | 225 | 9.7 | 22.5 | 0.00 | 0.00 | 0.00 | 17 | 1004.4 |
| 20260503211216 | 22 | 248 | 16.1 | 25.7 | 0.00 | 0.00 | 0.00 | 16 | 1004.7 |
| 20260503210216 | 22 | 248 | 9.7 | 16.1 | 0.00 | 0.00 | 0.00 | 16 | 1004.9 |
| 20260503205216 | 22 | 248 | 11.3 | 17.7 | 0.00 | 0.00 | 0.00 | 16 | 1005.2 |
| 20260503204216 | 22 | 270 | 8.0 | 17.7 | 0.00 | 0.00 | 0.00 | 17 | 1005.4 |
| 20260503203216 | 22 | 270 | 14.5 | 19.3 | 0.00 | 0.00 | 0.00 | 18 | 1005.6 |
| 20260503202216 | 22 | 293 | 9.7 | 14.5 | 0.00 | 0.00 | 0.00 | 20 | 1005.8 |
| 20260503201216 | 21 | 293 | 9.7 | 17.7 | 0.00 | 0.00 | 0.00 | 16 | 1006.2 |
| 20260503200236 | 21 | 0 | 12.9 | 16.1 | 0.00 | 0.00 | 0.00 | 17 | 1006.4 |
| 20260503195236 | 21 | 270 | 9.7 | 12.9 | 0.00 | 0.00 | 0.00 | 21 | 1006.7 |
| 20260503194216 | 21 | 0 | 12.9 | 17.7 | 0.00 | 0.00 | 0.00 | 19 | 1006.9 |
| 20260503193216 | 21 | 0 | 16.1 | 24.1 | 0.00 | 0.00 | 0.00 | 19 | 1007.2 |
| 20260503192216 | 20 | 270 | 9.7 | 19.3 | 0.00 | 0.00 | 0.00 | 20 | 1007.2 |
| 20260503191216 | 20 | 0 | 11.3 | 19.3 | 0.00 | 0.00 | 0.00 | 19 | 1007.6 |
| 20260503190215 | 20 | 0 | 6.4 | 12.9 | 0.00 | 0.00 | 0.00 | 19 | 1007.8 |
| 20260503185216 | 20 | 0 | 8.0 | 12.9 | 0.00 | 0.00 | 0.00 | 19 | 1008.0 |
| 20260503184216 | 20 | 0 | 9.7 | 14.5 | 0.00 | 0.00 | 0.00 | 20 | 1008.3 |
| 20260503183216 | 19 | 0 | 11.3 | 17.7 | 0.00 | 0.00 | 0.00 | 20 | 1008.6 |
| 20260503182216 | 19 | 0 | 12.9 | 16.1 | 0.00 | 0.00 | 0.00 | 20 | 1008.9 |
| 20260503181216 | 19 | 0 | 11.3 | 16.1 | 0.00 | 0.00 | 0.00 | 21 | 1009.0 |
| 20260503180215 | 18 | 0 | 8.0 | 12.9 | 0.00 | 0.00 | 0.00 | 21 | 1009.1 |
| 20260503175215 | 18 | 0 | 11.3 | 17.7 | 0.00 | 0.00 | 0.00 | 21 | 1009.3 |
| 20260503174215 | 18 | 0 | 12.9 | 16.1 | 0.00 | 0.00 | 0.00 | 22 | 1009.5 |
| 20260503173216 | 18 | 0 | 6.4 | 12.9 | 0.00 | 0.00 | 0.00 | 23 | 1009.8 |
| 20260503172215 | 17 | 0 | 9.7 | 12.9 | 0.00 | 0.00 | 0.00 | 22 | 1009.8 |
| 20260503171215 | 17 | 0 | 11.3 | 20.9 | 0.00 | 0.00 | 0.00 | 23 | 1010.2 |
| 20260503170215 | 17 | 0 | 8.0 | 12.9 | 0.00 | 0.00 | 0.00 | 26 | 1010.2 |
| 20260503160215 | 15 | 0 | 6.4 | 9.7 | 0.00 | 0.00 | 0.00 | 29 | 1011.2 |
| 20260503150217 | 12 | 0 | 6.4 | 8.0 | 0.00 | 0.00 | 0.00 | 36 | 1011.6 |
| 20260503140217 | 10 | 338 | 4.8 | 6.4 | 0.00 | 0.00 | 0.00 | 43 | 1011.8 |
| 20260503131215 | 7 | 0 | 8.0 | 12.9 | 0.00 | 0.00 | 0.00 | 46 | 1011.8 |
| 20260503130217 | 7 | 0 | 4.8 | 6.4 | 0.00 | 0.00 | 0.00 | 47 | 1011.6 |
| 20260503120217 | 5 | 293 | 4.8 | 6.4 | 0.00 | 0.00 | 0.00 | 49 | 1011.0 |
| 20260503110216 | 6 | 338 | 8.0 | 11.3 | 0.00 | 0.00 | 0.00 | 47 | 1010.2 |
| 20260503100216 | 6 | 0 | 9.7 | 14.5 | 0.00 | 0.00 | 0.00 | 50 | 1010.3 |
| 20260503090216 | 7 | 0 | 8.0 | 12.9 | 0.00 | 0.00 | 0.00 | 54 | 1009.7 |
| 20260503081217 | 8 | 0 | 6.4 | 11.3 | 0.00 | 0.00 | 0.00 | 53 | 1009.6 |
| 20260503080216 | 8 | 338 | 8.0 | 14.5 | 0.00 | 0.00 | 0.00 | 53 | 1009.5 |
| 20260503072216 | 9 | 338 | 11.3 | 14.5 | 0.00 | 0.00 | 0.00 | 51 | 1009.3 |
| 20260503071216 | 9 | 315 | 9.7 | 16.1 | 0.00 | 0.00 | 0.00 | 51 | 1009.4 |
| 20260503070216 | 10 | 338 | 9.7 | 16.1 | 0.00 | 0.00 | 0.00 | 50 | 1009.4 |
| 20260503060216 | 10 | 0 | 14.5 | 17.7 | 0.00 | 0.00 | 0.00 | 50 | 1009.1 |
| 20260503054216 | 10 | 0 | 14.5 | 20.9 | 0.00 | 0.00 | 0.00 | 50 | 1008.7 |
| 20260503053336 | 11 | 0 | 11.3 | 17.7 | 0.00 | 0.00 | 0.00 | 49 | 1008.7 |
| 20260503052216 | 12 | 338 | 12.9 | 17.7 | 0.00 | 0.00 | 0.00 | 46 | 1008.6 |
| 20260503051216 | 12 | 0 | 17.7 | 22.5 | 0.00 | 0.00 | 0.00 | 43 | 1008.5 |
| 20260503050256 | 12 | 0 | 11.3 | 14.5 | 0.00 | 0.00 | 0.00 | 43 | 1008.2 |
| 20260503045216 | 12 | 0 | 14.5 | 20.9 | 0.00 | 0.00 | 0.00 | 42 | 1008.1 |
| 20260503044216 | 12 | 0 | 16.1 | 22.5 | 0.00 | 0.00 | 0.00 | 43 | 1008.0 |
| 20260503043216 | 13 | 0 | 17.7 | 24.1 | 0.00 | 0.00 | 0.00 | 44 | 1008.0 |
| 20260503042216 | 13 | 0 | 16.1 | 22.5 | 0.00 | 0.00 | 0.00 | 42 | 1008.0 |
| 20260503041236 | 13 | 0 | 14.5 | 24.1 | 0.00 | 0.00 | 0.00 | 42 | 1007.8 |
| 20260503040216 | 13 | 0 | 16.1 | 19.3 | 0.00 | 0.00 | 0.00 | 41 | 1007.7 |